Flag for Canada Weather past 2 weeks in New Westminster, British Columbia, Canada

Now
51 °F

Cool.


Feels Like: 47 °F
Forecast: 44 / 53 °F
Wind: 10 mph from West

Location: P. Meadows Coastal Station

Current Time: Apr 21, 2015 at 7:10:03 PM

Latest Report: Apr 21, 2015 at 6:00 PM


Visibility: N/A

Pressure: 29.96 "Hg

Humidity: 91%

Dew point: 48 °F

Location of New WestminsterLocation

Historic Weather in New Westminster — Graph

°F

New Westminster temperature yesterday

Maximum temperature yesterday: 72 °F (at 4:00 PM)
Minimum temperature yesterday: 42 °F (at 6:00 AM)
Average temperature yesterday: 57 °F

Past Weeks' High & Low Weather Summary

 TemperatureHumidityPressure
High72 °F (Apr 20, 4:00 PM)100% (Apr 7, 8:00 AM)30.54 "Hg (Apr 7, 8:00 AM)
Low35 °F (Apr 8, 6:00 AM)33% (Apr 9, 5:00 PM)29.71 "Hg (Apr 10, 9:00 PM)
Average49 °F74%30.08 "Hg
* Reported Apr 6 6:00 PM — Apr 21 6:00 PM, New Westminster, Weather by CustomWeather, © 2015

Note: Actual official high and low records may vary slightly from our data, if they occured in-between our weather recording intervals... More about our weather records

Advertising

New Westminster weather history for previous 24 hours

 ConditionsComfort  
Time TempWeatherWind HumidityBarometerVisibility
6:00 PM
Tue, Apr 21
51 °FCool.10 mph91%29.96 "HgN/A
5:00 PM55 °FCool.6 mph84%29.93 "HgN/A
4:00 PM59 °FCool.8 mph68%29.92 "HgN/A
3:00 PM62 °FMild.6 mph64%29.91 "HgN/A
2:00 PM63 °FMild.5 mph58%29.90 "HgN/A
1:00 PM62 °FCool.3 mph63%29.90 "HgN/A
12:00 PM63 °FMild.5 mph62%29.90 "HgN/A
11:00 AM62 °FCool.3 mph64%29.90 "HgN/A
10:00 AM58 °FCool.2 mph74%29.90 "HgN/A
9:00 AM55 °FCool.2 mph80%29.89 "HgN/A
8:00 AM50 °FCool.1 mph90%29.88 "HgN/A
7:00 AM46 °FCool.No wind93%29.87 "HgN/A
6:00 AM44 °FQuite cool.1 mph96%29.86 "HgN/A
5:00 AM45 °FCool.No wind96%29.86 "HgN/A
4:00 AM45 °FCool.1 mph95%29.85 "HgN/A
3:00 AM46 °FCool.No wind89%29.85 "HgN/A
2:00 AM48 °FCool.2 mph92%29.85 "HgN/A
1:00 AM47 °FCool.No wind89%29.85 "HgN/A
12:00 AM51 °FCool.No wind85%29.84 "HgN/A
11:00 PM
Mon, Apr 20
52 °FCool.1 mph80%29.84 "HgN/A
10:00 PM56 °FCool.1 mph70%29.83 "HgN/A
9:00 PM58 °FCool.1 mph64%29.83 "HgN/A
8:00 PM64 °FMild.2 mph50%29.83 "HgN/A
7:00 PM67 °FMild.5 mph48%29.82 "HgN/A
Weather by CustomWeather, © 2015

See weather overviewHow to use our weather pages